When you browse on this site, cookies collect data to enhance your experience and personalize the content and advertising you see.
Visit our Privacy Policy to learn more. By continuing to use the site, you agree to this use of cookies and data.
  • In France
  • List of Countries
  • For 7 days
  • Water Temperature
  • Weather Map
  • Weather Widgets
  • user-avatar
    Login

    Hourly Weather Benito Juarez

    Today, 21 September, Saturday

    Time Temperature Precipitation Wind Pressure Humidity
    00:00 +20°C° 0 mm 1 mps 672 mmHg 87%
    01:00 +20°C° 0 mm 1 mps 672 mmHg 87%
    02:00 +20°C° 0 mm 1 mps 671 mmHg 86%
    03:00 +20°C° 0 mm 1 mps 671 mmHg 85%
    04:00 +18°C° 0 mm 2 mps 672 mmHg 85%
    05:00 +18°C° 0 mm 2 mps 672 mmHg 84%
    06:00 +21°C° 0 mm 1 mps 672 mmHg 81%
    07:00 +23°C° 0 mm 1 mps 673 mmHg 77%
    08:00 +24°C° 0 mm 0 mps 674 mmHg 74%
    09:00 +27°C° 0 mm 1 mps 673 mmHg 71%
    10:00 +28°C° 0 mm 1 mps 673 mmHg 69%
    11:00 +29°C° 0 mm 2 mps 673 mmHg 67%
    12:00 +29°C° 0.3 mm 2 mps 672 mmHg 69%
    13:00 +28°C° 0.3 mm 1 mps 671 mmHg 72%
    14:00 +28°C° 0.3 mm 1 mps 670 mmHg 75%
    15:00 +27°C° 0.7 mm 1 mps 670 mmHg 80%
    16:00 +26°C° 0.7 mm 1 mps 670 mmHg 85%
    17:00 +24°C° 0.7 mm 0 mps 670 mmHg 90%
    18:00 +22°C° 1.1 mm 0 mps 670 mmHg 91%
    19:00 +23°C° 1.1 mm 1 mps 671 mmHg 92%
    20:00 +22°C° 1.1 mm 1 mps 672 mmHg 93%
    21:00 +22°C° 0.1 mm 1 mps 672 mmHg 92%
    22:00 +21°C° 0.1 mm 1 mps 672 mmHg 92%
    23:00 +20°C° 0.1 mm 2 mps 672 mmHg 91%

    Tomorrow, 22 September, Sunday

    Time Temperature Precipitation Wind Pressure Humidity
    00:00 +20°C° 0 mm 2 mps 672 mmHg 91%
    01:00 +19°C° 0 mm 2 mps 671 mmHg 90%
    02:00 +19°C° 0 mm 2 mps 671 mmHg 90%
    03:00 +19°C° 0 mm 2 mps 671 mmHg 89%
    04:00 +19°C° 0 mm 2 mps 671 mmHg 88%
    05:00 +20°C° 0 mm 1 mps 671 mmHg 87%
    06:00 +22°C° 0 mm 1 mps 672 mmHg 83%
    07:00 +24°C° 0 mm 1 mps 673 mmHg 79%
    08:00 +23°C° 0 mm 0 mps 674 mmHg 75%
    09:00 +26°C° 0 mm 1 mps 673 mmHg 73%
    10:00 +27°C° 0 mm 1 mps 673 mmHg 70%
    11:00 +28°C° 0 mm 2 mps 672 mmHg 68%
    12:00 +28°C° 0.4 mm 2 mps 672 mmHg 70%
    13:00 +28°C° 0.4 mm 1 mps 671 mmHg 71%
    14:00 +28°C° 0.4 mm 1 mps 671 mmHg 73%
    15:00 +27°C° 0.5 mm 1 mps 670 mmHg 78%
    16:00 +27°C° 0.5 mm 1 mps 670 mmHg 83%
    17:00 +24°C° 0.5 mm 0 mps 670 mmHg 88%
    18:00 +24°C° 1.6 mm 1 mps 670 mmHg 89%
    19:00 +23°C° 1.6 mm 1 mps 671 mmHg 90%
    20:00 +22°C° 1.6 mm 1 mps 671 mmHg 92%
    21:00 +22°C° 0.6 mm 1 mps 672 mmHg 91%
    22:00 +21°C° 0.6 mm 1 mps 672 mmHg 91%
    23:00 +20°C° 0.6 mm 2 mps 672 mmHg 91%

    Day after tomorrow, 23 September, Monday

    Time Temperature Precipitation Wind Pressure Humidity
    00:00 +19°C° 0.1 mm 2 mps 672 mmHg 91%
    01:00 +19°C° 0.1 mm 2 mps 672 mmHg 91%
    02:00 +19°C° 0.1 mm 2 mps 671 mmHg 91%
    03:00 +18°C° 0.2 mm 2 mps 671 mmHg 90%
    04:00 +18°C° 0.2 mm 2 mps 671 mmHg 90%
    05:00 +18°C° 0.2 mm 2 mps 672 mmHg 89%
    06:00 +21°C° 0 mm 1 mps 672 mmHg 84%
    07:00 +21°C° 0 mm 0 mps 673 mmHg 80%
    08:00 +23°C° 0 mm 0 mps 674 mmHg 75%
    09:00 +24°C° 0 mm 0 mps 674 mmHg 72%
    10:00 +28°C° 0 mm 1 mps 673 mmHg 68%
    11:00 +29°C° 0 mm 2 mps 673 mmHg 65%
    12:00 +29°C° 0.1 mm 2 mps 672 mmHg 67%
    13:00 +29°C° 0.1 mm 1 mps 671 mmHg 69%
    14:00 +29°C° 0.1 mm 1 mps 671 mmHg 71%
    15:00 +28°C° 0.4 mm 1 mps 670 mmHg 78%
    16:00 +26°C° 0.4 mm 1 mps 670 mmHg 84%
    17:00 +25°C° 0.4 mm 1 mps 670 mmHg 91%
    18:00 +24°C° 1.2 mm 1 mps 670 mmHg 91%
    19:00 +23°C° 1.2 mm 1 mps 671 mmHg 92%
    20:00 +22°C° 1.2 mm 1 mps 671 mmHg 93%
    21:00 +20°C° 0.6 mm 2 mps 671 mmHg 92%
    22:00 +20°C° 0.6 mm 2 mps 671 mmHg 91%
    23:00 +19°C° 0.6 mm 2 mps 671 mmHg 89%

    24 September, Tuesday

    Time Temperature Precipitation Wind Pressure Humidity
    00:00 +19°C° 0.7 mm 2 mps 671 mmHg 88%
    01:00 +19°C° 0.7 mm 2 mps 671 mmHg 88%
    02:00 +19°C° 0.7 mm 2 mps 671 mmHg 87%
    03:00 +18°C° 0.3 mm 2 mps 671 mmHg 86%
    04:00 +18°C° 0.3 mm 2 mps 671 mmHg 85%
    05:00 +18°C° 0.3 mm 2 mps 671 mmHg 85%
    06:00 +21°C° 0 mm 1 mps 672 mmHg 82%
    07:00 +23°C° 0 mm 1 mps 673 mmHg 79%
    08:00 +23°C° 0 mm 0 mps 673 mmHg 76%
    09:00 +26°C° 0.2 mm 1 mps 673 mmHg 75%
    10:00 +27°C° 0.2 mm 1 mps 673 mmHg 74%
    11:00 +28°C° 0.2 mm 1 mps 672 mmHg 72%
    12:00 +28°C° 0.4 mm 1 mps 672 mmHg 73%
    13:00 +28°C° 0.4 mm 1 mps 671 mmHg 73%
    14:00 +28°C° 0.4 mm 1 mps 670 mmHg 73%
    15:00 +27°C° 0.4 mm 1 mps 670 mmHg 79%
    16:00 +24°C° 0.4 mm 0 mps 670 mmHg 84%
    17:00 +23°C° 0.4 mm 0 mps 670 mmHg 90%
    18:00 +22°C° 0.2 mm 0 mps 670 mmHg 90%
    19:00 +21°C° 0.2 mm 0 mps 670 mmHg 91%
    20:00 +22°C° 0.2 mm 1 mps 671 mmHg 91%
    21:00 +22°C° 0.3 mm 1 mps 671 mmHg 91%
    22:00 +21°C° 0.3 mm 1 mps 671 mmHg 90%
    23:00 +21°C° 0.3 mm 1 mps 671 mmHg 89%

    25 September, Wednesday

    Time Temperature Precipitation Wind Pressure Humidity
    00:00 +21°C° 0.1 mm 1 mps 671 mmHg 89%
    01:00 +20°C° 0.1 mm 1 mps 671 mmHg 89%
    02:00 +20°C° 0.1 mm 1 mps 670 mmHg 88%
    03:00 +20°C° 0 mm 1 mps 671 mmHg 88%
    04:00 +20°C° 0 mm 1 mps 671 mmHg 88%
    05:00 +20°C° 0 mm 1 mps 671 mmHg 87%
    06:00 +21°C° 0 mm 1 mps 671 mmHg 84%
    07:00 +23°C° 0 mm 1 mps 672 mmHg 82%
    08:00 +25°C° 0 mm 1 mps 673 mmHg 79%
    09:00 +26°C° 0.1 mm 1 mps 672 mmHg 76%
    10:00 +27°C° 0.1 mm 1 mps 672 mmHg 74%
    11:00 +28°C° 0.1 mm 2 mps 672 mmHg 71%
    12:00 +28°C° 0.1 mm 2 mps 671 mmHg 71%
    13:00 +28°C° 0.1 mm 2 mps 670 mmHg 70%
    14:00 +28°C° 0.1 mm 1 mps 670 mmHg 70%
    15:00 +27°C° 0 mm 1 mps 670 mmHg 75%
    16:00 +26°C° 0 mm 1 mps 669 mmHg 81%
    17:00 +25°C° 0 mm 1 mps 669 mmHg 87%
    18:00 +24°C° 0 mm 1 mps 670 mmHg 89%
    19:00 +23°C° 0 mm 1 mps 670 mmHg 90%
    20:00 +22°C° 0 mm 1 mps 671 mmHg 92%
    21:00 +22°C° 0.1 mm 1 mps 671 mmHg 91%
    22:00 +22°C° 0.1 mm 1 mps 671 mmHg 90%
    23:00 +21°C° 0.1 mm 1 mps 671 mmHg 89%

    26 September, Thursday

    Time Temperature Precipitation Wind Pressure Humidity
    00:00 +21°C° 0.1 mm 1 mps 671 mmHg 88%
    01:00 +21°C° 0.1 mm 1 mps 671 mmHg 87%
    02:00 +21°C° 0.1 mm 1 mps 671 mmHg 85%
    03:00 +21°C° 0 mm 1 mps 671 mmHg 85%
    04:00 +21°C° 0 mm 1 mps 671 mmHg 85%
    05:00 +20°C° 0 mm 1 mps 671 mmHg 84%
    06:00 +22°C° 0 mm 1 mps 671 mmHg 82%
    07:00 +22°C° 0 mm 0 mps 672 mmHg 79%
    08:00 +23°C° 0 mm 0 mps 672 mmHg 76%
    09:00 +26°C° 0.1 mm 1 mps 672 mmHg 74%
    10:00 +27°C° 0.1 mm 1 mps 671 mmHg 73%
    11:00 +28°C° 0.1 mm 2 mps 671 mmHg 72%
    12:00 +28°C° 0.4 mm 1 mps 670 mmHg 74%
    13:00 +28°C° 0.4 mm 1 mps 669 mmHg 76%
    14:00 +28°C° 0.4 mm 1 mps 668 mmHg 78%
    15:00 +27°C° 0.3 mm 1 mps 668 mmHg 82%
    16:00 +26°C° 0.3 mm 1 mps 668 mmHg 87%
    17:00 +23°C° 0.3 mm 0 mps 668 mmHg 92%
    18:00 +23°C° 0.7 mm 0 mps 669 mmHg 92%
    19:00 +22°C° 0.7 mm 0 mps 669 mmHg 93%
    20:00 +22°C° 0.7 mm 0 mps 670 mmHg 94%
    21:00 +21°C° 1.4 mm 0 mps 670 mmHg 94%
    22:00 +23°C° 1.4 mm 1 mps 670 mmHg 94%
    23:00 +23°C° 1.4 mm 1 mps 670 mmHg 95%
    Show more